Location: Unspecified
(48.8656°N, 0.0000°E)
Time: 07:04:35
(UTC+00:00)

Transit 2A Rocket - Pass Details

Date: 24 June 2019
Orbit: 588 x 915 km, 66.7° (Epoch: 17 July)

Event Time Altitude Azimuth Distance (km) Brightness Sun altitude
Rises 16:01:12 0° 324° (NW) 3,403 8.7 37.2°
Reaches altitude 10° 16:04:24 10° 340° (NNW) 2,407 7.8 36.6°
Maximum altitude 16:08:27 20° 28° (NNE) 1,715 6.7 36.0°
Drops below altitude 10° 16:12:15 10° 76° (ENE) 2,236 7.0 35.3°
Sets 16:15:05 0° 93° (E) 3,090 7.6 34.9°
